sat.trackr.live / text

‹ back to catalog

ONEWEB-0670

NORAD 55829 · 2023-029AK

PAYLOAD ACTIVE UNKNOWN

§ Identity

Operator
Country
UK
Launch date
2023-03-09
Launch site
AFETR
Launch vehicle
Mass (kg)
RCS (m²)

Purposes: comms

External: N2YO · Heavens-Above · Gunter

§ Orbital elements

Epoch: 2026-09-19T23:31:16.123872Z

Period
109.55 min
Inclination
87.8887°
Eccentricity
0.0002269
Mean motion
13.14503747 rev/d
Perigee alt
1,204.1 km
Apogee alt
1,207.5 km
Semi-major
7,583.9 km
B*
-3.7254e-4
RAAN
270.8251°
Arg perigee
88.1035°
Mean anomaly
272.0355°
Rev number
17,188

§ Raw data

ONEWEB-06701 55829U 23029AK  26262.98004773 -.00000125  00000+0 -37254-3 0  99942 55829  87.8887 270.8251 0002269  88.1035 272.0355 13.14503747171880

JSON: /api/v1/satellites/55829 · /tle

For live sub-satellite position, see the globe view (requires WebGL).

§ Visibility from observer

Set your observer location to see the next 7 days of passes ≥ 10°. The values pass through the URL so the page stays shareable.

No JS? Fill the form by hand. The geolocation button needs JavaScript.